Terminal Aerodrome Forecast
Issued by NWS

Home | Current Version | Previous Version | Text Only | Print | Product List | Glossary Off
Versions: 1 2 3 4 5 6 7 8 9 10 11 12 13

000
FTUS42 KMHX 210100 AAA
TAFOAJ
TAF AMD
KOAJ 210108Z 2101/2124 36009KT P6SM OVC025
     FM210600 36012G22KT P6SM OVC008
     FM211500 36015G25KT P6SM OVC015
      AMD LTD TO CLD VIS AND WIND=

USA.gov is the U.S. government's official web portal to all federal, state and local government web resources and services.